| time (UTC) | temp F | wind direction | speed MPH | gust MPH | rain 1hr in | rain 24hr in | rain mn in | humidity % | barometer mb |
| 20260831124531 | 45 | 180 | 1.0 | 3.0 | 0.00 | 0.00 | 0.00 | 93 | 1015.8 |
| 20260831121533 | 46 | 190 | 0.0 | 3.0 | 0.00 | 0.00 | 0.00 | 92 | 1015.7 |
| 20260831120029 | 46 | 202 | 0.0 | 1.0 | 0.00 | 0.00 | 0.00 | 92 | 1015.8 |
| 20260831114536 | 46 | 189 | 2.0 | 4.0 | 0.00 | 0.00 | 0.00 | 92 | 1015.9 |
| 20260831113030 | 46 | 180 | 1.0 | 4.0 | 0.00 | 0.00 | 0.00 | 91 | 1015.8 |
| 20260831111607 | 46 | 185 | 0.0 | 4.0 | 0.00 | 0.00 | 0.00 | 91 | 1015.9 |
| 20260831110030 | 47 | 180 | 0.0 | 2.0 | 0.00 | 0.00 | 0.00 | 91 | 1015.9 |
| 20260831104530 | 47 | 180 | 0.0 | 3.0 | 0.00 | 0.00 | 0.00 | 91 | 1015.9 |
| 20260831103029 | 47 | 181 | 1.0 | 3.0 | 0.00 | 0.00 | 0.00 | 90 | 1016.0 |
| 20260831101529 | 47 | 181 | 2.0 | 5.0 | 0.00 | 0.00 | 0.00 | 90 | 1015.9 |
| 20260831100029 | 47 | 180 | 0.0 | 3.0 | 0.00 | 0.00 | 0.00 | 90 | 1016.0 |
| 20260831094532 | 48 | 180 | 0.0 | 3.0 | 0.00 | 0.00 | 0.00 | 89 | 1016.2 |
| 20260831093030 | 48 | 180 | 2.0 | 4.0 | 0.00 | 0.00 | 0.00 | 88 | 1016.3 |
| 20260831091532 | 49 | 200 | 2.0 | 3.0 | 0.00 | 0.00 | 0.00 | 88 | 1016.4 |
| 20260831084529 | 50 | 180 | 0.0 | 4.0 | 0.00 | 0.00 | 0.00 | 86 | 1016.4 |
| 20260831083144 | 50 | 180 | 0.0 | 3.0 | 0.00 | 0.00 | 0.00 | 85 | 1016.5 |
| 20260831081540 | 51 | 190 | 1.0 | 4.0 | 0.00 | 0.00 | 0.00 | 85 | 1016.6 |
| 20260831081531 | 51 | 180 | 1.0 | 5.0 | 0.00 | 0.00 | 0.00 | 85 | 1016.6 |
| 20260831074534 | 51 | 183 | 3.0 | 5.0 | 0.00 | 0.00 | 0.00 | 85 | 1016.7 |
| 20260831071531 | 51 | 180 | 3.0 | 5.0 | 0.00 | 0.00 | 0.00 | 84 | 1016.7 |
| 20260831070108 | 51 | 180 | 2.0 | 5.0 | 0.00 | 0.00 | 0.00 | 84 | 1016.8 |
| 20260831064529 | 52 | 184 | 3.0 | 4.0 | 0.00 | 0.00 | 0.00 | 84 | 1016.9 |
| 20260831061540 | 53 | 185 | 0.0 | 1.0 | 0.00 | 0.00 | 0.00 | 80 | 1017.0 |
| 20260831060032 | 54 | 187 | 1.0 | 5.0 | 0.00 | 0.00 | 0.00 | 78 | 1016.9 |
| 20260831054530 | 55 | 189 | 2.0 | 4.0 | 0.00 | 0.00 | 0.00 | 78 | 1017.0 |
| 20260831051607 | 55 | 181 | 3.0 | 7.0 | 0.00 | 0.00 | 0.00 | 78 | 1017.1 |
| 20260831044529 | 56 | 180 | 3.0 | 4.0 | 0.00 | 0.00 | 0.00 | 78 | 1017.1 |
| 20260831043030 | 56 | 180 | 3.0 | 6.0 | 0.00 | 0.00 | 0.00 | 78 | 1017.1 |
| 20260831034528 | 59 | 195 | 2.0 | 4.0 | 0.00 | 0.00 | 0.00 | 71 | 1016.9 |
| 20260831033030 | 60 | 188 | 2.0 | 4.0 | 0.00 | 0.00 | 0.00 | 70 | 1016.7 |
| 20260831031530 | 62 | 170 | 2.0 | 4.0 | 0.00 | 0.00 | 0.00 | 68 | 1016.6 |
| 20260831024530 | 64 | 181 | 4.0 | 8.0 | 0.00 | 0.00 | 0.00 | 62 | 1016.5 |
| 20260831023030 | 66 | 180 | 3.0 | 6.0 | 0.00 | 0.00 | 0.00 | 59 | 1016.5 |
| 20260831020033 | 68 | 182 | 5.0 | 11.0 | 0.00 | 0.00 | 0.00 | 53 | 1016.5 |
| 20260831014529 | 69 | 181 | 5.0 | 14.0 | 0.00 | 0.00 | 0.00 | 51 | 1016.4 |
| 20260831013029 | 70 | 182 | 7.0 | 15.0 | 0.00 | 0.00 | 0.00 | 49 | 1016.5 |
| 20260831011529 | 71 | 181 | 7.0 | 14.0 | 0.00 | 0.00 | 0.00 | 48 | 1016.6 |
| 20260831010030 | 71 | 183 | 5.0 | 13.0 | 0.00 | 0.00 | 0.00 | 47 | 1016.6 |
| 20260831004530 | 72 | 185 | 4.0 | 16.0 | 0.00 | 0.00 | 0.00 | 46 | 1016.6 |
| 20260831003031 | 72 | 182 | 6.0 | 13.0 | 0.00 | 0.00 | 0.00 | 46 | 1016.6 |
| 20260831001530 | 72 | 185 | 5.0 | 15.0 | 0.00 | 0.00 | 0.00 | 45 | 1016.7 |
| 20260831000032 | 73 | 186 | 6.0 | 20.0 | 0.00 | 0.00 | 0.00 | 43 | 1016.7 |
| 20260830234533 | 73 | 208 | 4.0 | 15.0 | 0.00 | 0.00 | 0.00 | 42 | 1016.9 |
| 20260830233104 | 73 | 190 | 5.0 | 18.0 | 0.00 | 0.00 | 0.00 | 42 | 1016.9 |
| 20260830231533 | 73 | 202 | 4.0 | 15.0 | 0.00 | 0.00 | 0.00 | 42 | 1017.1 |
| 20260830224533 | 74 | 198 | 4.0 | 18.0 | 0.00 | 0.00 | 0.00 | 42 | 1017.5 |
| 20260830221532 | 75 | 195 | 4.0 | 16.0 | 0.00 | 0.00 | 0.00 | 43 | 1018.0 |
| 20260830214602 | 75 | 197 | 4.0 | 14.0 | 0.00 | 0.00 | 0.00 | 44 | 1018.4 |
| 20260830213030 | 75 | 329 | 3.0 | 14.0 | 0.00 | 0.00 | 0.00 | 44 | 1018.6 |
| 20260830211530 | 75 | 335 | 2.0 | 11.0 | 0.00 | 0.00 | 0.00 | 44 | 1018.7 |
| 20260830210030 | 75 | 118 | 1.0 | 15.0 | 0.00 | 0.00 | 0.00 | 45 | 1018.8 |
| 20260830200031 | 70 | 11 | 4.0 | 11.0 | 0.00 | 0.00 | 0.00 | 50 | 1019.6 |
| 20260830194534 | 69 | 360 | 4.0 | 11.0 | 0.00 | 0.00 | 0.00 | 51 | 1019.8 |
| 20260830193031 | 68 | 3 | 2.0 | 10.0 | 0.00 | 0.00 | 0.00 | 51 | 1019.9 |
| 20260830191529 | 69 | 73 | 3.0 | 9.0 | 0.00 | 0.00 | 0.00 | 51 | 1020.1 |
| 20260830190033 | 68 | 7 | 2.0 | 7.0 | 0.00 | 0.00 | 0.00 | 53 | 1020.2 |
| 20260830183031 | 66 | 22 | 5.0 | 11.0 | 0.00 | 0.00 | 0.00 | 57 | 1020.6 |
| 20260830181616 | 66 | 13 | 5.0 | 13.0 | 0.00 | 0.00 | 0.00 | 58 | 1020.7 |
| 20260830180031 | 65 | 42 | 5.0 | 11.0 | 0.00 | 0.00 | 0.00 | 58 | 1020.7 |
| 20260830174530 | 66 | 50 | 4.0 | 8.0 | 0.00 | 0.00 | 0.00 | 59 | 1020.7 |
| 20260830173029 | 65 | 109 | 2.0 | 6.0 | 0.00 | 0.00 | 0.00 | 61 | 1020.8 |
| 20260830171530 | 64 | 95 | 3.0 | 6.0 | 0.00 | 0.00 | 0.00 | 62 | 1020.8 |
| 20260830170029 | 63 | 86 | 2.0 | 7.0 | 0.00 | 0.00 | 0.00 | 65 | 1021.0 |
| 20260830164533 | 62 | 75 | 3.0 | 6.0 | 0.00 | 0.00 | 0.00 | 67 | 1021.2 |
| 20260830163031 | 61 | 108 | 3.0 | 6.0 | 0.00 | 0.00 | 0.00 | 70 | 1021.3 |
| 20260830161605 | 59 | 117 | 2.0 | 5.0 | 0.00 | 0.00 | 0.00 | 73 | 1021.5 |
| 20260830160146 | 57 | 116 | 2.0 | 4.0 | 0.00 | 0.00 | 0.00 | 75 | 1021.8 |
| 20260830153032 | 54 | 2 | 0.0 | 3.0 | 0.00 | 0.00 | 0.00 | 81 | 1021.9 |
| 20260830150030 | 51 | 202 | 0.0 | 1.0 | 0.00 | 0.00 | 0.00 | 89 | 1022.0 |
| 20260830144529 | 49 | 202 | 0.0 | 2.0 | 0.00 | 0.00 | 0.00 | 91 | 1022.1 |
| 20260830143031 | 47 | 202 | 0.0 | 0.0 | 0.00 | 0.00 | 0.00 | 92 | 1022.0 |
| 20260830141530 | 44 | 186 | 1.0 | 3.0 | 0.00 | 0.00 | 0.00 | 91 | 1021.8 |
| 20260830140056 | 44 | 183 | 1.0 | 3.0 | 0.00 | 0.00 | 0.00 | 91 | 1021.7 |
| 20260830134529 | 44 | 202 | 0.0 | 2.0 | 0.00 | 0.00 | 0.00 | 89 | 1021.5 |
| 20260830133034 | 44 | 185 | 1.0 | 3.0 | 0.00 | 0.00 | 0.00 | 87 | 1021.4 |
| 20260830130028 | 46 | 202 | 1.0 | 3.0 | 0.00 | 0.00 | 0.00 | 84 | 1021.1 |